Skopje Airport

 Skopje "Alexander the Great" Airport (IATA: SKP, ICAO: LWSK) is the largest and busiest of the two international airports in Skopje FIR. It is located 17 km (11 mi) southeast of the national capital Skopje in the Municipality of Petrovec.

Runway details

RwyLengthCourseElevationILSILS freqILS FACGlidepath
16 9679ft / 2950 m 163° 780ft Block32 Block32 Block32 3.0°
34 9679ft / 2950 m 343° 768ft Check32 108.7 343° 3.3°

 

Charts for Skopje Airport
General Information Download
Aerodrome Chart Download
Aircraft Parking/Docking Chart Download
Standard Instrument Departure - Runway 16 Download
Standard Instrument Departure - Runway 34 Download
Standard Instrument Arrival Download
Instrument Approach - ILS 34 (ACFT CAT A,B) Download
Instrument Approach - ILS 34 (ACFT CAT C,D) Download
Instrument Approach - VOR 34 (ACFT CAT A,B) Download
Instrument Approach - VOR 34 (ACFT CAT C,D) Download
Aerodrome Obstacle chart A - Runway 16 Download
Aerodrome Obstacle chart A - Runway 34 Download
Minimum Radar Vector Altitudes - TMA Skopje Download
All Charts in one Download
Scenery for Skopje Airprot
FS2004 / FSX / P3D (payware, Ivano Marongiu) Download
FS2004 (freeware, AFCAD) Download
FS2004 (freeware, BETA version (NOT AFCAD)) Download
FSX (freeware, AFCAD) Download
X-Plane (freeware) Download
X-Plane - another scenery (freeware) Download
FSX mesh-up Download
Useful documents
Pilot Breefing Download

Official website of Skopje Airport...Click here

Latest weather information

[source: UHMR]
METAR
LWSK 280630Z 21002KT 9999 FEW100 21/10 Q1013 NOSIG =
LWOH 280630Z 18003KT 9999 FEW040 20/10 Q1014 =
TAF
TAF LWSK 280530Z 2806/2906 VRB02KT 9999 FEW080 BECMG 2808/2810 02012KT CAVOK =
TAF LWOH 280530Z 2806/2906 04006KT 9999 FEW040 =

София Дървен материал цени

София Дъски цена